Location: Spangle
(47.4302°N, 117.3779°W)
Time: 15:06:30
(UTC+00:00)

Envisat - Pass Details

Date: 25 April 2026
Orbit: 761 x 762 km, 98.4° (Epoch: 15 May)

Event Time Altitude Azimuth Distance (km) Brightness Sun altitude
Rises 11:36:58 0° 5° (N) 3,236 6.8 -10.7°
Reaches altitude 10° 11:39:31 10° 355° (N) 2,305 5.9 -10.3°
Maximum altitude 11:43:50 29° 296° (WNW) 1,367 4.0 -9.7°
Enters shadow 11:47:49 12° 240° (WSW) 2,179 4.7 -9.2°
